Wind_Speed
6 4 4 4 3 3 2 2 2 2 2 3 3 3 3 3 4 5 6 6 6 6 7 7 8 9 10 10 10 10 10 10 10 9 9 9 8 8 7 7 7 6 5
6 4 4 3 3 2 2 1 1 1 2 2 2 2 2 2 3 3 4 5 5 6 6 6 7 7 8 10 11 11 11 11 11 10 10 10 10 9 9 9 8 8 7
7 5 4 4 3 2 1 1 1 1 1 1 1 1 1 1 2 2 2 3 4 5 5 6 7 7 7 8 9 10 11 10 11 12 11 11 11 11 10 10 10 9 9
7 6 5 4 3 2 1 0 1 1 1 1 1 1 1 1 2 2 2 2 2 2 4 5 5 7 7 8 8 8 9 10 11 12 12 13 13 13 13 12 11 11 11
7 7 6 5 4 3 1 0 1 2 2 2 2 2 2 2 2 2 2 2 2 3 3 4 4 5 7 7 8 8 8 9 10 11 11 12 13 13 13 14 13 12 12
8 7 6 5 4 3 2 1 2 2 2 3 3 3 3 2 2 2 3 2 2 3 3 3 3 4 5 6 7 7 8 8 8 10 11 11 12 12 13 13 14 14 13
9 9 8 6 5 4 3 2 2 2 2 3 3 3 3 3 3 3 3 2 3 3 3 3 3 3 4 4 5 6 6 6 6 7 9 11 11 12 12 12 13 13 14
9 10 9 7 6 5 4 2 1 1 1 2 2 3 4 4 4 4 4 3 3 3 3 3 3 3 3 3 4 5 5 6 6 7 7 8 10 11 12 12 13 13 14
10 10 9 8 7 6 5 3 2 0 0 0 1 2 3 3 4 4 4 4 4 3 3 3 3 3 3 3 3 4 5 6 7 7 8 8 8 10 11 12 13 14 15
10 10 10 9 8 7 6 5 4 3 2 2 2 1 2 2 3 3 4 4 4 4 4 4 4 4 4 4 4 4 5 6 7 8 8 9 9 9 10 11 12 14 15
11 11 11 10 9 8 7 7 6 5 4 4 4 4 3 3 4 4 4 4 5 5 5 5 5 5 5 5 6 6 6 7 8 8 8 9 10 10 11 12 12 13 14
11 12 12 11 10 10 9 9 8 7 7 7 6 6 6 6 6 6 6 6 6 7 7 7 7 7 8 8 8 8 8 9 9 10 10 11 11 12 12 12 13 13 14
12 12 13 12 11 11 11 11 10 10 10 10 9 9 9 9 9 9 9 9 9 9 10 10 10 10 10 11 11 11 11 11 11 12 12 12 13 13 14 14 14 14 15
14 14 14 14 13 12 13 13 13 13 13 13 13 12 12 13 13 13 13 13 13 13 13 13 13 13 13 13 14 14 14 14 14 15 15 15 16 16 16 16 16 17 17
14 15 15 15 15 15 15 15 15 16 16 16 16 16 16 16 16 16 16 17 17 17 17 16 16 17 17 17 17 18 18 18 19 19 19 19 20 20 19 19 19 19 19
15 15 16 16 17 17 17 17 18 18 19 19 19 19 19 20 20 20 20 21 21 21 21 21 20 21 21 21 21 22 22 22 22 23 23 24 24 24 23 23 23 23 22
16 16 17 17 18 19 19 19 20 20 21 21 22 22 22 23 23 23 24 24 25 25 25 25 24 24 24 25 25 25 25 26 26 27 27 27 28 28 28 27 27 27 26
18 18 18 19 19 20 21 21 22 22 23 24 24 24 25 25 26 27 27 27 28 28 29 29 29 28 28 29 29 30 30 30 30 31 31 31 32 32 32 32 31 31 30
19 20 20 20 21 21 22 22 22 24 25 26 26 26 27 28 28 29 30 30 30 31 31 32 32 32 32 32 33 33 34 35 35 35 35 35 35 36 36 36 35 35 35
20 20 21 21 21 22 22 22 23 24 25 26 26 28 29 29 30 31 31 32 33 33 34 34 35 35 36 36 37 37 37 38 38 39 38 38 38 38 38 38 38 38 38
19 20 21 22 22 22 22 23 24 24 24 25 27 28 29 30 32 32 33 34 35 36 37 37 38 39 39 40 39 40 40 41 41 42 42 40 40 40 40 40 40 41 41
18 19 20 21 22 22 23 24 25 25 26 27 28 30 31 31 32 33 35 36 37 37 39 40 40 41 41 41 41 42 43 42 42 42 43 42 42 42 43 43 43 44 44
19 19 20 21 21 21 23 24 26 27 28 29 30 31 31 32 33 34 35 36 37 38 39 40 41 41 42 43 43 44 44 44 44 44 45 45 45 46 46 46 46 46 46
19 19 19 21 22 23 23 25 27 28 29 30 31 32 33 35 35 36 37 38 40 40 41 42 42 43 44 45 46 46 46 47 47 47 48 48 48 48 48 48 47 47 47
21 21 21 22 23 25 26 28 29 30 31 32 33 33 34 35 36 38 39 40 41 43 44 45 45 46 47 47 48 48 49 49 48 48 49 50 49 49 49 48 48 49 48
22 24 25 25 26 27 29 30 31 32 33 34 34 35 36 38 40 41 42 43 44 45 46 48 49 49 49 49 49 50 51 51 51 51 51 52 53 53 51 50 50 51 51
Wind_Direction
230 235 241 244 255 259 268 278 274 272 273 274 276 278 281 274 266 256 255 256 260 258 253 246 245 242 241 242 240 238 240 239 238 239 238 237 237 239 242 246 243 246 253
223 225 227 232 244 252 260 283 303 297 286 288 292 284 282 283 284 276 273 267 262 257 252 247 249 248 245 243 240 239 240 242 241 241 240 238 238 242 245 248 249 249 250
223 220 218 219 227 235 252 301 338 333 324 322 326 324 305 302 310 303 292 287 271 259 253 252 251 253 252 250 243 241 239 242 244 244 243 242 242 244 248 251 251 251 251
215 207 208 210 215 221 232 3 31 31 27 23 18 3 353 348 339 332 323 330 323 285 267 266 260 253 256 254 245 246 244 244 247 248 247 245 247 248 251 252 253 253 254
205 198 202 205 206 204 195 92 52 45 41 44 43 44 46 43 25 12 360 344 340 335 314 284 270 264 260 255 252 254 255 252 249 248 247 250 253 253 253 254 254 255 255
207 202 203 202 199 187 175 134 71 51 53 62 68 59 54 56 49 31 19 6 353 344 334 322 293 283 277 262 258 260 259 258 258 255 253 254 256 257 257 254 255 257 258
210 204 201 199 194 186 175 140 92 65 61 65 64 55 49 46 42 39 29 24 10 3 356 349 335 311 298 279 264 263 260 262 270 269 263 262 261 261 260 260 259 257 259
206 201 200 199 194 191 186 168 129 82 68 63 63 55 47 40 36 36 34 33 28 22 16 9 3 345 324 302 274 267 270 272 277 278 279 273 267 265 264 263 262 261 262
206 201 200 202 200 197 197 198 197 203 309 338 22 36 33 30 33 32 29 28 26 24 18 12 9 4 348 335 304 292 281 282 283 286 286 286 284 271 268 268 265 264 265
207 206 204 208 208 207 213 224 239 252 266 275 290 314 342 352 2 9 8 6 5 2 3 356 350 345 344 341 328 307 294 292 291 291 291 289 287 283 276 274 270 269 269
212 210 211 213 216 220 226 234 244 254 263 267 275 283 294 304 313 321 330 333 335 332 332 334 335 333 328 322 318 314 304 299 297 296 294 288 286 286 286 284 282 278 274
215 215 216 219 223 230 235 239 248 254 259 264 269 273 281 286 293 299 303 308 311 314 312 311 312 313 311 310 307 305 304 301 300 299 296 293 290 289 288 289 286 283 280
220 221 221 224 230 237 239 243 251 257 261 264 269 272 275 279 285 289 293 296 298 301 304 302 302 303 302 301 300 300 300 298 297 297 296 295 293 290 288 288 287 285 283
228 230 228 230 236 243 246 248 254 259 263 266 269 272 275 278 281 285 288 290 291 293 295 296 297 297 296 295 295 296 297 297 296 294 293 292 291 290 288 287 286 285 284
233 235 234 237 242 246 250 253 257 260 263 266 268 271 274 276 278 281 284 287 288 290 290 291 292 293 292 292 292 292 292 291 291 291 291 291 291 290 289 288 286 285 284
237 238 238 242 247 251 254 257 259 262 265 266 269 272 274 276 279 280 283 285 286 287 287 287 288 289 290 289 289 288 288 288 288 288 288 288 288 288 287 286 285 284 283
241 242 242 247 250 254 257 259 261 263 266 267 269 271 273 275 277 279 280 283 285 286 287 287 287 286 288 288 287 286 286 285 285 285 285 285 285 284 284 283 282 282 281
245 246 248 251 254 257 260 263 264 265 267 269 270 271 273 275 277 278 279 281 283 284 285 285 285 286 287 287 286 285 284 284 284 284 283 283 283 282 281 281 280 279 279
249 250 253 256 260 261 263 265 267 269 269 271 271 272 273 275 276 277 278 280 281 282 283 283 283 284 285 285 284 284 284 284 283 283 282 282 281 281 280 279 278 278 277
253 255 258 260 262 264 266 268 270 272 272 273 274 276 276 276 277 278 279 280 280 281 281 281 282 283 285 285 284 283 283 283 283 282 280 280 280 280 279 279 278 277 277
257 258 260 261 265 268 270 271 272 274 276 276 276 277 278 279 281 281 281 280 280 281 282 282 282 282 283 284 283 282 282 282 282 281 280 279 278 278 277 277 276 276 276
259 262 265 267 268 270 272 273 275 278 279 279 279 280 282 284 283 283 284 284 284 283 282 282 283 283 283 283 284 283 282 281 280 280 279 278 277 277 275 275 275 275 274
265 266 268 269 271 272 273 275 275 277 279 280 281 282 285 284 285 286 286 287 286 285 284 283 283 283 282 282 283 283 283 281 280 280 279 279 278 277 276 275 275 275 274
268 271 271 272 274 276 277 278 279 280 282 283 284 284 284 285 286 287 286 287 287 286 284 285 285 283 282 282 283 283 282 282 281 279 279 279 278 277 276 276 276 276 274
271 275 276 278 278 280 280 281 282 283 284 285 286 287 287 287 287 288 288 288 287 286 284 284 284 284 284 283 282 282 281 281 280 279 278 279 278 278 277 276 275 274 273
275 278 280 282 283 283 283 284 284 285 286 286 287 288 288 288 288 288 288 288 287 287 286 285 285 284 283 283 284 283 282 281 281 279 278 278 278 277 276 275 275 274 274
Height
5874 5875 5876 5876 5877 5877 5878 5878 5878 5878 5878 5878 5879 5879 5879 5878 5879 5880 5880 5881 5882 5883 5883 5884 5885 5886 5888 5889 5890 5891 5892 5893 5894 5895 5896 5897 5898 5899 5900 5901 5902 5903 5903
5873 5874 5875 5876 5877 5877 5877 5878 5878 5878 5878 5878 5878 5878 5878 5878 5879 5879 5880 5880 5881 5881 5882 5883 5884 5885 5886 5887 5888 5889 5891 5892 5893 5894 5895 5896 5897 5898 5899 5900 5900 5901 5902
5872 5873 5875 5876 5876 5877 5877 5877 5878 5878 5878 5878 5878 5878 5878 5878 5878 5879 5879 5879 5880 5880 5881 5882 5883 5884 5885 5886 5887 5888 5889 5890 5891 5892 5893 5894 5895 5896 5897 5898 5899 5900 5900
5871 5873 5874 5875 5876 5877 5877 5877 5878 5878 5878 5877 5877 5878 5878 5878 5878 5878 5879 5879 5879 5879 5880 5881 5882 5883 5883 5884 5885 5886 5887 5888 5889 5890 5891 5892 5893 5894 5895 5896 5897 5897 5898
5870 5872 5873 5874 5875 5876 5877 5877 5878 5878 5878 5878 5878 5878 5878 5878 5878 5878 5878 5879 5879 5879 5879 5880 5881 5881 5882 5883 5884 5885 5885 5886 5887 5888 5889 5890 5891 5892 5893 5893 5894 5895 5896
5869 5871 5873 5874 5875 5876 5877 5877 5878 5878 5878 5878 5878 5878 5878 5878 5878 5878 5878 5878 5879 5879 5879 5879 5880 5880 5881 5882 5882 5883 5884 5885 5885 5886 5887 5888 5888 5889 5890 5891 5892 5892 5893
5868 5870 5872 5873 5875 5876 5877 5877 5877 5878 5878 5878 5878 5878 5878 5878 5878 5878 5878 5878 5878 5878 5879 5879 5879 5880 5880 5881 5881 5882 5882 5883 5884 5884 5885 5885 5886 5886 5887 5888 5889 5889 5890
5867 5869 5871 5873 5874 5875 5876 5877 5877 5878 5878 5878 5878 5878 5878 5879 5878 5878 5878 5878 5878 5878 5878 5879 5879 5879 5879 5879 5880 5880 5881 5882 5882 5882 5883 5883 5883 5884 5885 5885 5886 5886 5887
5866 5868 5870 5872 5873 5875 5875 5876 5877 5877 5878 5878 5878 5879 5879 5879 5878 5878 5878 5878 5878 5878 5878 5878 5878 5879 5879 5879 5879 5879 5880 5880 5881 5881 5881 5881 5881 5881 5882 5882 5883 5883 5884
5865 5867 5869 5871 5872 5873 5874 5875 5876 5877 5877 5878 5878 5878 5878 5878 5879 5878 5878 5878 5878 5878 5878 5878 5878 5878 5878 5878 5878 5878 5878 5879 5879 5879 5879 5879 5879 5879 5879 5879 5879 5880 5880
5863 5865 5867 5869 5871 5872 5873 5874 5875 5876 5876 5877 5877 5877 5878 5878 5878 5878 5878 5878 5878 5877 5877 5877 5877 5877 5877 5877 5877 5877 5877 5877 5877 5877 5877 5877 5877 5877 5877 5877 5877 5876 5876
5861 5864 5865 5867 5869 5870 5872 5873 5873 5874 5875 5875 5876 5876 5877 5877 5877 5877 5877 5877 5877 5876 5876 5876 5876 5876 5876 5875 5875 5875 5875 5875 5875 5874 5874 5874 5874 5874 5874 5874 5873 5873 5873
5860 5862 5864 5865 5867 5868 5869 5871 5872 5872 5873 5874 5874 5874 5875 5875 5875 5875 5875 5875 5875 5875 5874 5874 5874 5873 5873 5873 5873 5872 5872 5872 5872 5871 5871 5871 5871 5870 5870 5870 5870 5869 5869
5857 5859 5861 5863 5865 5866 5867 5868 5869 5870 5870 5871 5872 5872 5872 5872 5872 5872 5872 5872 5872 5872 5872 5872 5871 5871 5870 5870 5870 5869 5869 5868 5868 5868 5867 5867 5867 5867 5866 5866 5865 5865 5865
5855 5857 5859 5860 5862 5863 5864 5865 5866 5867 5867 5868 5868 5869 5869 5869 5869 5869 5869 5869 5869 5869 5869 5869 5868 5867 5867 5866 5866 5865 5865 5864 5864 5863 5863 5863 5862 5862 5861 5861 5860 5860 5860
5852 5854 5855 5857 5858 5859 5860 5861 5862 5863 5864 5864 5865 5865 5865 5865 5865 5865 5865 5864 5864 5864 5864 5864 5863 5863 5862 5862 5861 5860 5860 5859 5859 5858 5858 5857 5857 5856 5856 5855 5855 5854 5854
5849 5850 5852 5853 5854 5855 5856 5857 5858 5859 5859 5860 5860 5860 5860 5860 5860 5860 5860 5859 5859 5859 5858 5858 5857 5857 5856 5855 5855 5854 5854 5853 5853 5852 5851 5851 5850 5849 5849 5848 5848 5848 5847
5845 5847 5848 5849 5850 5851 5852 5852 5853 5854 5854 5854 5854 5855 5855 5855 5854 5854 5854 5853 5853 5852 5852 5851 5850 5850 5850 5848 5848 5847 5846 5846 5845 5845 5844 5843 5842 5841 5841 5840 5840 5840 5839
5841 5842 5843 5844 5845 5846 5846 5847 5847 5848 5848 5848 5848 5848 5848 5848 5848 5847 5847 5846 5846 5845 5845 5844 5843 5842 5842 5841 5840 5839 5838 5837 5836 5836 5835 5834 5833 5832 5832 5831 5831 5830 5830
5836 5837 5838 5839 5840 5840 5841 5841 5842 5842 5842 5842 5841 5841 5841 5841 5840 5840 5839 5839 5838 5837 5837 5835 5835 5834 5833 5831 5830 5829 5828 5827 5826 5825 5824 5824 5823 5822 5822 5821 5820 5820 5819
5832 5832 5833 5833 5834 5835 5836 5836 5836 5835 5835 5835 5835 5834 5834 5833 5832 5831 5831 5830 5829 5828 5827 5826 5825 5824 5823 5821 5820 5818 5817 5816 5815 5814 5813 5813 5812 5812 5811 5810 5809 5809 5808
5827 5828 5828 5828 5829 5830 5830 5830 5829 5829 5829 5828 5828 5827 5826 5826 5825 5823 5822 5821 5820 5819 5818 5816 5815 5814 5812 5810 5809 5807 5806 5805 5804 5803 5801 5801 5799 5799 5799 5798 5797 5796 5796
5822 5823 5823 5823 5823 5824 5824 5824 5823 5822 5822 5821 5820 5819 5818 5817 5816 5815 5813 5811 5810 5808 5807 5805 5804 5803 5801 5799 5797 5795 5794 5793 5792 5790 5788 5788 5787 5786 5785 5784 5784 5783 5782
5817 5817 5817 5818 5818 5817 5817 5817 5816 5815 5814 5813 5812 5811 5810 5808 5806 5805 5803 5802 5799 5797 5796 5794 5792 5791 5789 5787 5784 5783 5781 5779 5778 5776 5774 5774 5773 5772 5771 5770 5769 5768 5768
5811 5812 5812 5812 5811 5811 5810 5809 5808 5807 5806 5804 5803 5802 5800 5798 5796 5794 5793 5791 5788 5786 5784 5782 5780 5777 5775 5773 5771 5769 5767 5765 5764 5762 5760 5758 5758 5757 5756 5755 5754 5753 5752
5806 5806 5806 5805 5804 5804 5803 5802 5800 5799 5797 5795 5794 5792 5790 5788 5786 5783 5781 5779 5776 5774 5771 5768 5766 5763 5761 5758 5756 5754 5752 5750 5748 5747 5745 5743 5741 5740 5741 5740 5738 5737 5736